Weather History for KMYP - May, 2013

Change the Weather History Date:

Thursday, May 16, 2013

  Actual Average (KGUC) Record (KGUC)
Temperature  
Mean Temperature 42 °F -  
Max Temperature 51 °F 62 °F 71 °F (2000)
Min Temperature 33 °F 31 °F 21 °F (1998)
Degree Days  
Heating Degree Days 23    
Moisture  
Dew Point 26 °F    
Average Humidity 58    
Maximum Humidity 93    
Minimum Humidity 30    
Precipitation  
Precipitation 0.00 in - - ()
Sea Level Pressure  
Sea Level Pressure 30.42 in    
Wind  
Wind Speed 18 mph (WSW)    
Max Wind Speed 37 mph    
Max Gust Speed 47 mph    
Averages and records for this station are not official NWS values.
T = Trace of Precipitation, MM = Missing Value Source: NWS Daily Summary

Daily Weather History Graph

Daily Weather History Graph

Search for Another Location

Airport or City:

Trip Planner

Search our weather history database for the weather conditions in past years. The results will help you decide how hot, cold, wet, or windy it might be!

Date:

Astronomy

May. 16, 2013 Rise Set
Actual Time 5:52 AM MDT 8:11 PM MDT
Civil Twilight 5:22 AM MDT 8:41 PM MDT
Nautical Twilight 4:45 AM MDT 9:18 PM MDT
Astronomical Twilight 4:05 AM MDT 9:58 PM MDT
Moon 11:27 AM MDT (5/16) 12:34 AM MDT (5/16)
Length of Visible Light 15h 18m
Length of Day
14h 18m
Waxing Crescent, 36% of the Moon is Illuminated
May 16
Waxing Crescent
May 17
First Quarter
May 24
Full
May 31
Last Quarter
Jun 8
New

Hourly Weather History & Observations

Time (MDT) Temp. Windchill Dew Point Humidity Pressure Visibility Wind Dir Wind Speed Gust Speed Precip Events Conditions
12:12 AM 35.6 °F 27.5 °F 32.0 °F 87% 30.43 in - SW 11.5 mph - N/A   Clear
12:32 AM 35.6 °F 26.2 °F 32.0 °F 87% 30.43 in - SW 15.0 mph - N/A   Clear
12:52 AM 35.6 °F 25.9 °F 32.0 °F 87% 30.43 in - SSW 16.1 mph - N/A   Unknown
1:12 AM 35.6 °F 26.2 °F 32.0 °F 87% 30.43 in - SW 15.0 mph - N/A   Unknown
1:32 AM 33.8 °F 23.9 °F 32.0 °F 93% 30.42 in - SSW 15.0 mph - N/A   Unknown
1:52 AM 35.6 °F 25.2 °F 32.0 °F 87% 30.42 in - SSW 18.4 mph - N/A   Overcast
2:12 AM 35.6 °F 25.5 °F 32.0 °F 87% 30.41 in - SW 17.3 mph - N/A   Overcast
2:32 AM 33.8 °F 23.5 °F 32.0 °F 93% 30.41 in - SW 16.1 mph - N/A   Mostly Cloudy
2:52 AM 35.6 °F 25.2 °F 30.2 °F 81% 30.40 in - WSW 18.4 mph - N/A   Scattered Clouds
3:12 AM 35.6 °F 25.2 °F 30.2 °F 81% 30.40 in - WSW 18.4 mph - N/A   Clear
3:32 AM 35.6 °F 26.2 °F 30.2 °F 81% 30.40 in - WSW 15.0 mph - N/A   Clear
3:52 AM 33.8 °F 24.3 °F 30.2 °F 87% 30.40 in - SW 13.8 mph - N/A   Clear
4:12 AM 33.8 °F 23.9 °F 28.4 °F 81% 30.40 in - SW 15.0 mph - N/A   Clear
4:32 AM 33.8 °F 23.9 °F 28.4 °F 81% 30.40 in - SW 15.0 mph - N/A   Clear
4:52 AM 33.8 °F 23.5 °F 28.4 °F 81% 30.40 in - WSW 16.1 mph - N/A   Clear
5:12 AM 33.8 °F 23.9 °F 28.4 °F 81% 30.40 in - SW 15.0 mph - N/A   Clear
5:32 AM 33.8 °F 23.2 °F 28.4 °F 81% 30.40 in - SW 17.3 mph - N/A   Clear
5:52 AM 33.8 °F 23.5 °F 26.6 °F 75% 30.40 in - SW 16.1 mph - N/A   Clear
6:12 AM 33.8 °F 23.5 °F 26.6 °F 75% 30.40 in - WSW 16.1 mph - N/A   Clear
6:32 AM 33.8 °F 23.9 °F 26.6 °F 75% 30.41 in - WSW 15.0 mph - N/A   Clear
6:52 AM 35.6 °F 26.2 °F 26.6 °F 70% 30.41 in - WSW 15.0 mph - N/A   Clear
7:12 AM 35.6 °F 25.9 °F 26.6 °F 70% 30.42 in - WSW 16.1 mph - N/A   Clear
7:32 AM 35.6 °F 25.9 °F 26.6 °F 70% 30.42 in - West 16.1 mph - N/A   Clear
7:52 AM 35.6 °F 24.8 °F 26.6 °F 70% 30.42 in - West 19.6 mph - N/A   Clear
8:12 AM 35.6 °F 25.2 °F 26.6 °F 70% 30.43 in - WSW 18.4 mph - N/A   Clear
8:32 AM 37.4 °F 27.2 °F 26.6 °F 65% 30.43 in - WSW 19.6 mph - N/A   Clear
8:52 AM 37.4 °F 27.5 °F 24.8 °F 60% 30.43 in - SW 18.4 mph - N/A   Clear
9:12 AM 37.4 °F 26.9 °F 26.6 °F 65% 30.44 in - WSW 20.7 mph 27.6 mph N/A   Clear
9:32 AM 39.2 °F 28.3 °F 24.8 °F 56% 30.44 in - WSW 25.3 mph 28.8 mph N/A   Clear
9:52 AM 39.2 °F 29.0 °F 26.6 °F 61% 30.43 in - SW 21.9 mph 29.9 mph N/A   Clear
10:12 AM 41.0 °F 30.7 °F 26.6 °F 57% 30.44 in - West 25.3 mph 31.1 mph N/A   Clear
10:32 AM 41.0 °F 30.9 °F 28.4 °F 61% 30.44 in - SW 24.2 mph 31.1 mph N/A   Clear
10:52 AM 41.0 °F 31.4 °F 26.6 °F 57% 30.45 in - West 21.9 mph 32.2 mph N/A   Clear
11:12 AM 41.0 °F 29.8 °F 26.6 °F 57% 30.44 in - West 29.9 mph 34.5 mph N/A   Clear
11:32 AM 42.8 °F 31.9 °F 28.4 °F 57% 30.44 in - West 32.2 mph 40.3 mph N/A   Clear
11:52 AM 42.8 °F 32.1 °F 26.6 °F 53% 30.44 in - West 31.1 mph 41.4 mph N/A   Clear
12:12 PM 42.8 °F 31.8 °F 23.0 °F 46% 30.44 in - West 33.4 mph 44.9 mph N/A   Clear
12:32 PM 44.6 °F 33.8 °F 23.0 °F 43% 30.43 in - West 36.8 mph 47.2 mph N/A   Clear
1:12 PM 44.6 °F 34.2 °F 24.8 °F 46% 30.43 in - West 33.4 mph 40.3 mph N/A   Clear
1:32 PM 46.4 °F 38.5 °F 26.6 °F 46% 30.43 in - West 21.9 mph 32.2 mph N/A   Clear
1:52 PM 48.2 °F - 26.6 °F 43% 30.43 in - West 25.3 mph 36.8 mph N/A   Clear
2:12 PM 50.0 °F - 26.6 °F 40% 30.43 in - WSW 25.3 mph 32.2 mph N/A   Scattered Clouds
2:32 PM 50.0 °F - 26.6 °F 40% 30.43 in - WSW 16.1 mph 32.2 mph N/A   Scattered Clouds
2:52 PM 50.0 °F - 23.0 °F 35% 30.43 in - WSW 12.7 mph 24.2 mph N/A   Scattered Clouds
3:12 PM 50.0 °F - 23.0 °F 35% 30.42 in - West 16.1 mph 34.5 mph N/A   Clear
3:32 PM 51.8 °F - 23.0 °F 33% 30.41 in - West 26.5 mph 33.4 mph N/A   Scattered Clouds
4:12 PM 51.8 °F - 21.2 °F 30% 30.40 in - West 19.6 mph 32.2 mph N/A   Scattered Clouds
4:32 PM 50.0 °F - 21.2 °F 32% 30.40 in - West 19.6 mph 33.4 mph N/A   Scattered Clouds
4:52 PM 51.8 °F - 23.0 °F 33% 30.40 in - West 20.7 mph 34.5 mph N/A   Scattered Clouds
5:12 PM 51.8 °F - 23.0 °F 33% 30.40 in - West 32.2 mph 39.1 mph N/A   Scattered Clouds
5:32 PM 50.0 °F - 21.2 °F 32% 30.39 in - West 31.1 mph 40.3 mph N/A   Scattered Clouds
5:52 PM 50.0 °F - 21.2 °F 32% 30.39 in - West 25.3 mph 33.4 mph N/A   Scattered Clouds
6:12 PM 50.0 °F - 23.0 °F 35% 30.38 in - West 28.8 mph 38.0 mph N/A   Scattered Clouds
6:32 PM 50.0 °F - 21.2 °F 32% 30.39 in - West 28.8 mph 40.3 mph N/A   Scattered Clouds
6:52 PM 46.4 °F 38.3 °F 21.2 °F 37% 30.40 in - West 23.0 mph - N/A   Clear
7:12 PM 46.4 °F 37.9 °F 23.0 °F 40% 30.40 in - West 25.3 mph 28.8 mph N/A   Mostly Cloudy
7:32 PM 46.4 °F 38.3 °F 21.2 °F 37% 30.41 in - West 23.0 mph 32.2 mph N/A   Scattered Clouds
7:52 PM 44.6 °F 36.1 °F 23.0 °F 43% 30.42 in - West 21.9 mph 33.4 mph N/A   Mostly Cloudy
8:12 PM 44.6 °F 35.9 °F 23.0 °F 43% 30.42 in - West 23.0 mph - N/A   Overcast
8:32 PM 44.6 °F 36.6 °F 23.0 °F 43% 30.42 in - West 19.6 mph - N/A   Overcast
8:52 PM 44.6 °F 36.9 °F 21.2 °F 39% 30.42 in - West 18.4 mph 24.2 mph N/A   Overcast
9:12 PM 42.8 °F 36.6 °F 23.0 °F 46% 30.43 in - WSW 11.5 mph - N/A   Overcast
9:32 PM 42.8 °F 36.6 °F 21.2 °F 42% 30.44 in - WSW 11.5 mph - N/A   Overcast
9:52 PM 42.8 °F 37.5 °F 23.0 °F 46% 30.45 in - WSW 9.2 mph - N/A   Overcast
10:12 PM 42.8 °F 36.6 °F 23.0 °F 46% 30.45 in - West 11.5 mph - N/A   Overcast
10:32 PM 42.8 °F 36.6 °F 23.0 °F 46% 30.45 in - West 11.5 mph - N/A   Scattered Clouds
10:52 PM 42.8 °F 37.0 °F 23.0 °F 46% 30.44 in - West 10.4 mph - N/A   Scattered Clouds
11:12 PM 41.0 °F 33.9 °F 23.0 °F 49% 30.44 in - West 12.7 mph - N/A   Mostly Cloudy
11:32 PM 41.0 °F 34.7 °F 21.2 °F 45% 30.44 in - WSW 10.4 mph - N/A   Scattered Clouds
11:52 PM 41.0 °F 33.9 °F 23.0 °F 49% 30.44 in - WSW 12.7 mph - N/A   Scattered Clouds